Regional Weather Roundup
Issued by NWS

Home | Current Version | Previous Version | Graphics & Text | Print | Product List | Glossary On
Versions: 1 2 3 4 5 6 7 8 9 10 11 12 13 14 15 16 17 18 19 20 21 22 23 24 25 26 27 28 29 30 31 32 33 34 35 36 37 38 39 40 41 42 43 44 45 46 47 48 49 50
000
ASUS43 KOAX 251510
RWRNE

WEATHER ROUNDUP FOR NEBRASKA
NATIONAL WEATHER SERVICE OMAHA NE
1000 AM CDT FRI JUL 25 2014

NOTES: SATELLITE DATA IS BEING USED TO AUGMENT CLOUD COVER ABOVE
       12000 FEET.
       "FAIR" INDICATES FEW OR NO CLOUDS BELOW 12,000 FEET WITH NO
       SIGNIFICANT WEATHER AND/OR OBSTRUCTIONS TO VISIBILITY.

  * THESE STATIONS DO NOT REPORT WEATHER SUCH AS RAIN...SNOW OR FOG.

NEZ001>004-019>022-054>056-251600-
NEBRASKA PANHANDLE

CITY           SKY/WX    TMP DP  RH WIND       PRES   REMARKS
SCOTTSBLUFF    SUNNY     75  55  49 N8        30.06R
ALLIANCE       SUNNY     73  41  31 N13       30.04R
CHADRON        SUNNY     76  35  22 N10       30.02R
KIMBALL        MOSUNNY   71  56  60 N15       30.08R
SIDNEY         SUNNY     74  55  51 N23G30    30.03S
$$

NEZ057>060-069>072-079>082-251600-
SOUTHWEST NEBRASKA

CITY           SKY/WX    TMP DP  RH WIND       PRES   REMARKS
NORTH PLATTE   SUNNY     78  63  59 N15       29.89R
IMPERIAL       MOSUNNY   77  61  57 N12       29.93R
LEXINGTON      SUNNY     82  63  52 NW13      29.84R
MCCOOK         MOSUNNY   81  60  48 W8        29.86R
OGALLALA       MOSUNNY   77  58  51 N20       29.94R
$$

NEZ005>010-023>029-035>040-094-251600-
NORTH CENTRAL NEBRASKA

CITY           SKY/WX    TMP DP  RH WIND       PRES   REMARKS
VALENTINE      CLOUDY    73  65  75 N18G24    29.91R
AINSWORTH      SUNNY     74  65  74 N18G24    29.87R
BROKEN BOW     SUNNY     79  65  62 N24G31    29.82R
O`NEILL        SUNNY     80  69  69 N9        29.77S
ORD            SUNNY     79  65  62 NW12      29.78R
THEDFORD       SUNNY     75  64  67 N20       29.91R
$$

NEZ041-046>049-061>064-073>077-083>087-251600-
SOUTH CENTRAL NEBRASKA

CITY           SKY/WX    TMP DP  RH WIND       PRES   REMARKS
GRAND ISLAND   SUNNY     86  65  49 W13       29.79R
AURORA         MOSUNNY   83  71  65 SW9G16    29.78R
HASTINGS       SUNNY     85  65  51 SW7       29.79S
HEBRON         MOSUNNY   84  67  55 SW12G20   29.78F
HOLDREGE       SUNNY     84  60  43 SW9       29.81F
KEARNEY *      SUNNY     84  63  48 SW10      29.81S
YORK           PTSUNNY   82  72  69 SW13G18   29.78S
$$

NEZ011>018-030>034-042>045-251600-
NORTHEAST NEBRASKA

CITY           SKY/WX    TMP DP  RH WIND       PRES   REMARKS
NORFOLK        SUNNY     80  70  71 S12       29.74F
ALBION         SUNNY     81  69  66 SW3       29.76R
BLAIR          SUNNY     75  66  71 SE13      29.79F
COLUMBUS *     SUNNY     81  70  69 SE8       29.76F
FREMONT        SUNNY     80  69  70 SE14      29.76F
WAYNE          MOSUNNY   79  72  77 SE13      29.77R
$$

NEZ050>053-065>068-078-088>093-251600-
SOUTHEAST NEBRASKA

CITY           SKY/WX    TMP DP  RH WIND       PRES   REMARKS
LINCOLN        MOSUNNY   88  69  53 W15       29.78R HX  92
OMAHA EPPLEY   MOSUNNY   78  66  66 SE16      29.79F
BEATRICE       PTSUNNY   87  72  60 SW15      29.77F HX  93
FALLS CITY     SUNNY     86  72  62 SW10      29.80R HX  92
NEBRASKA CITY  MOSUNNY   78  69  74 E5        29.82R
PLATTSMOUTH    SUNNY     79  68  69 SE7       29.80F
$$

NEZ044-045-051>053-067-251600-
OMAHA AREA

CITY           SKY/WX    TMP DP  RH WIND       PRES   REMARKS
OMAHA EPPLEY   MOSUNNY   78  66  66 SE16      29.79F
BLAIR          SUNNY     75  66  71 SE13      29.79F
FREMONT        SUNNY     80  69  70 SE14      29.76F
MILLARD        SUNNY     78  68  72 SE14      29.78F
OFFUTT AFB     SUNNY     78  71  77 E14       29.79F
PLATTSMOUTH    SUNNY     79  68  69 SE7       29.80F
WAHOO          FAIR      79  70  74 SE12      29.76F
$$



USA.gov is the U.S. government's official web portal to all federal, state and local government web resources and services.